• In Belarus
  • List of Countries
  • For 7 days
  • Water Temperature
  • Satellite Maps
  • Weather Map
  • Weather Widgets
  • user-avatar
    Login

    Hourly Weather Rheinfelden

    Today, 12 December, Tuesday

    Time Temperature Precipitation Wind Pressure Humidity
    00:00 +4°C° 0.2 mm 4 mps 719 mmHg 87%
    01:00 +4°C° 0 mm 4 mps 720 mmHg 86%
    02:00 +2°C° 0.1 mm 5 mps 721 mmHg 86%
    03:00 +2°C° 0.1 mm 5 mps 723 mmHg 85%
    04:00 +1°C° 0.1 mm 5 mps 724 mmHg 85%
    05:00 0°C° 0 mm 5 mps 725 mmHg 86%
    06:00 0°C° 0 mm 4 mps 727 mmHg 87%
    07:00 +1°C° 0 mm 3 mps 728 mmHg 88%
    08:00 +1°C° 0.1 mm 3 mps 729 mmHg 87%
    09:00 +1°C° 0.1 mm 3 mps 730 mmHg 87%
    10:00 +3°C° 0.1 mm 2 mps 731 mmHg 86%
    11:00 +2°C° 0.1 mm 3 mps 731 mmHg 84%
    12:00 +2°C° 0.1 mm 3 mps 732 mmHg 82%
    13:00 +3°C° 0.1 mm 3 mps 733 mmHg 80%
    14:00 +3°C° 0 mm 3 mps 733 mmHg 82%
    15:00 +3°C° 0 mm 2 mps 734 mmHg 84%
    16:00 +3°C° 0 mm 2 mps 734 mmHg 85%
    17:00 +2°C° 0 mm 2 mps 735 mmHg 87%
    18:00 +1°C° 0 mm 2 mps 736 mmHg 89%
    19:00 -1°C° 0 mm 2 mps 736 mmHg 91%
    20:00 -1°C° 0 mm 2 mps 737 mmHg 92%
    21:00 -2°C° 0 mm 2 mps 738 mmHg 92%
    22:00 -2°C° 0 mm 2 mps 738 mmHg 92%
    23:00 -2°C° 0 mm 2 mps 739 mmHg 91%

    Tomorrow, 13 December, Wednesday

    Time Temperature Precipitation Wind Pressure Humidity
    00:00 -2°C° 0 mm 2 mps 739 mmHg 90%
    01:00 -2°C° 0 mm 2 mps 739 mmHg 90%
    02:00 -3°C° 0 mm 2 mps 739 mmHg 89%
    03:00 -3°C° 0 mm 2 mps 739 mmHg 88%
    04:00 -3°C° 0 mm 2 mps 739 mmHg 87%
    05:00 -3°C° 0 mm 2 mps 739 mmHg 85%
    06:00 -3°C° 0 mm 2 mps 739 mmHg 84%
    07:00 -3°C° 0 mm 2 mps 739 mmHg 83%
    08:00 -2°C° 0 mm 2 mps 739 mmHg 79%
    09:00 -1°C° 0 mm 3 mps 738 mmHg 75%
    10:00 0°C° 0 mm 3 mps 738 mmHg 71%
    11:00 +1°C° 0 mm 3 mps 737 mmHg 67%
    12:00 +3°C° 0 mm 3 mps 736 mmHg 64%
    13:00 +4°C° 0 mm 3 mps 734 mmHg 61%
    14:00 +4°C° 0.3 mm 3 mps 734 mmHg 66%
    15:00 +3°C° 0.3 mm 3 mps 733 mmHg 70%
    16:00 +3°C° 0.3 mm 3 mps 732 mmHg 75%
    17:00 +3°C° 0.5 mm 3 mps 732 mmHg 77%
    18:00 +4°C° 0.5 mm 4 mps 732 mmHg 79%
    19:00 +4°C° 0.5 mm 4 mps 732 mmHg 82%
    20:00 +4°C° 0.4 mm 4 mps 731 mmHg 83%
    21:00 +5°C° 0.4 mm 4 mps 730 mmHg 84%
    22:00 +5°C° 0.4 mm 5 mps 730 mmHg 85%
    23:00 +5°C° 0.4 mm 5 mps 729 mmHg 85%

    Day after tomorrow, 14 December, Thursday

    Time Temperature Precipitation Wind Pressure Humidity
    00:00 +6°C° 0.4 mm 5 mps 729 mmHg 85%
    01:00 +5°C° 0.4 mm 6 mps 729 mmHg 85%
    02:00 +5°C° 0.3 mm 6 mps 729 mmHg 86%
    03:00 +7°C° 0.3 mm 6 mps 729 mmHg 86%
    04:00 +7°C° 0.3 mm 6 mps 729 mmHg 87%
    05:00 +5°C° 0.2 mm 6 mps 729 mmHg 87%
    06:00 +6°C° 0.2 mm 5 mps 729 mmHg 87%
    07:00 +5°C° 0.2 mm 5 mps 730 mmHg 87%
    08:00 +5°C° 0.1 mm 5 mps 730 mmHg 86%
    09:00 +5°C° 0.1 mm 4 mps 730 mmHg 86%
    10:00 +5°C° 0.1 mm 4 mps 730 mmHg 85%
    11:00 +5°C° 0.1 mm 4 mps 729 mmHg 83%
    12:00 +6°C° 0.1 mm 5 mps 728 mmHg 80%
    13:00 +7°C° 0.1 mm 5 mps 728 mmHg 78%
    14:00 +6°C° 0.1 mm 5 mps 727 mmHg 80%
    15:00 +6°C° 0.1 mm 5 mps 726 mmHg 82%
    16:00 +6°C° 0.1 mm 4 mps 725 mmHg 84%
    17:00 +6°C° 0.3 mm 5 mps 724 mmHg 83%
    18:00 +5°C° 0.3 mm 6 mps 724 mmHg 81%
    19:00 +5°C° 0.3 mm 7 mps 723 mmHg 80%
    20:00 +5°C° 1.4 mm 7 mps 723 mmHg 81%
    21:00 +5°C° 1.4 mm 7 mps 723 mmHg 81%
    22:00 +5°C° 1.4 mm 7 mps 723 mmHg 82%
    23:00 +4°C° 1.6 mm 7 mps 724 mmHg 83%

    15 December, Friday

    Time Temperature Precipitation Wind Pressure Humidity
    00:00 +3°C° 1.6 mm 6 mps 724 mmHg 83%
    01:00 +2°C° 1.6 mm 5 mps 725 mmHg 84%
    02:00 +3°C° 0.2 mm 4 mps 725 mmHg 85%
    03:00 +1°C° 0.2 mm 4 mps 725 mmHg 87%
    04:00 +2°C° 0.2 mm 3 mps 725 mmHg 88%
    05:00 +2°C° 0.2 mm 3 mps 725 mmHg 88%
    06:00 +2°C° 0.2 mm 3 mps 726 mmHg 88%
    07:00 +2°C° 0.2 mm 3 mps 726 mmHg 88%
    08:00 +2°C° 0.2 mm 3 mps 726 mmHg 87%
    09:00 +2°C° 0.2 mm 3 mps 727 mmHg 86%
    10:00 +2°C° 0.2 mm 3 mps 727 mmHg 86%
    11:00 +3°C° 0 mm 4 mps 727 mmHg 83%
    12:00 +3°C° 0 mm 4 mps 726 mmHg 80%
    13:00 +4°C° 0 mm 4 mps 726 mmHg 77%
    14:00 +3°C° 0 mm 4 mps 726 mmHg 78%
    15:00 +3°C° 0 mm 3 mps 726 mmHg 80%
    16:00 +4°C° 0 mm 2 mps 725 mmHg 81%
    17:00 +2°C° 0.5 mm 3 mps 726 mmHg 83%
    18:00 +2°C° 0.5 mm 3 mps 726 mmHg 85%
    19:00 +1°C° 0.5 mm 4 mps 727 mmHg 87%
    20:00 +1°C° 0.5 mm 4 mps 727 mmHg 87%
    21:00 +1°C° 0.5 mm 4 mps 728 mmHg 88%
    22:00 +1°C° 0.5 mm 4 mps 729 mmHg 89%
    23:00 0°C° 0.1 mm 4 mps 729 mmHg 89%

    16 December, Saturday

    Time Temperature Precipitation Wind Pressure Humidity
    00:00 +1°C° 0.1 mm 3 mps 730 mmHg 89%
    01:00 0°C° 0.1 mm 3 mps 730 mmHg 89%
    02:00 +1°C° 0.2 mm 2 mps 731 mmHg 90%
    03:00 +1°C° 0.2 mm 2 mps 731 mmHg 91%
    04:00 +2°C° 0.2 mm 1 mps 732 mmHg 91%
    05:00 +2°C° 0.2 mm 1 mps 732 mmHg 92%
    06:00 +2°C° 0.2 mm 1 mps 733 mmHg 92%
    07:00 +2°C° 0.2 mm 1 mps 733 mmHg 92%
    08:00 +2°C° 0 mm 1 mps 734 mmHg 91%
    09:00 +2°C° 0 mm 1 mps 734 mmHg 90%
    10:00 +3°C° 0 mm 1 mps 734 mmHg 89%
    11:00 +3°C° 0 mm 1 mps 735 mmHg 87%
    12:00 +3°C° 0 mm 2 mps 735 mmHg 85%
    13:00 +4°C° 0 mm 2 mps 735 mmHg 84%
    14:00 +3°C° 0.1 mm 2 mps 735 mmHg 86%
    15:00 +4°C° 0.1 mm 1 mps 735 mmHg 87%
    16:00 +4°C° 0.1 mm 1 mps 735 mmHg 89%
    17:00 +3°C° 0.1 mm 1 mps 736 mmHg 90%
    18:00 +2°C° 0.1 mm 1 mps 737 mmHg 91%
    19:00 +2°C° 0.1 mm 1 mps 737 mmHg 92%
    20:00 +1°C° 0.1 mm 1 mps 738 mmHg 93%
    21:00 +1°C° 0.1 mm 1 mps 738 mmHg 93%
    22:00 +1°C° 0.1 mm 1 mps 738 mmHg 94%
    23:00 +1°C° 0 mm 1 mps 739 mmHg 93%

    17 December, Sunday

    Time Temperature Precipitation Wind Pressure Humidity
    00:00 0°C° 0 mm 1 mps 739 mmHg 93%
    01:00 0°C° 0 mm 1 mps 739 mmHg 93%
    02:00 0°C° 0 mm 1 mps 740 mmHg 93%
    03:00 0°C° 0 mm 1 mps 740 mmHg 92%
    04:00 -1°C° 0 mm 1 mps 740 mmHg 92%
    05:00 -1°C° 0 mm 1 mps 740 mmHg 92%
    06:00 -1°C° 0 mm 1 mps 741 mmHg 92%
    07:00 -1°C° 0 mm 1 mps 741 mmHg 92%
    08:00 0°C° 0 mm 1 mps 742 mmHg 90%
    09:00 0°C° 0 mm 1 mps 742 mmHg 89%
    10:00 +1°C° 0 mm 1 mps 743 mmHg 88%
    11:00 +2°C° 0 mm 1 mps 743 mmHg 85%
    12:00 +2°C° 0 mm 1 mps 743 mmHg 82%
    13:00 +3°C° 0 mm 1 mps 743 mmHg 79%
    14:00 +3°C° 0 mm 1 mps 743 mmHg 82%
    15:00 +2°C° 0 mm 1 mps 743 mmHg 84%
    16:00 +2°C° 0 mm 1 mps 743 mmHg 86%
    17:00 +1°C° 0 mm 1 mps 744 mmHg 87%
    18:00 0°C° 0 mm 1 mps 745 mmHg 88%
    19:00 -1°C° 0 mm 1 mps 745 mmHg 89%
    20:00 -1°C° 0 mm 1 mps 746 mmHg 89%
    21:00 -2°C° 0 mm 1 mps 746 mmHg 89%
    22:00 -2°C° 0 mm 1 mps 746 mmHg 89%
    23:00 -2°C° 0 mm 1 mps 746 mmHg 89%
    Show more